Hourly Data Report for October 17, 2015

All times are specified in Local Standard Time (LST). Add 1 hour to adjust for Daylight Saving Time where and when it is observed.

MONCTON INTL A
NEW BRUNSWICK

46°06'44.000" N
64°40'43.000" W
70.70 m
8103201
71705
YQM

Download Data

Hourly Data (October 2015)
Hourly Data Report for October 17, 2015
Temp Definition
°C
Dew Point Temp Definition
°C
Rel Hum Definition
%
Wind Dir Definition
10's deg

Wind Spd Definition
km/h
Visibility Definition
km
Stn Press Definition
kPa
Hmdx Definition


Wind Chill Definition


Weather Definition


TIME
00:00 Legend Double Dagger 1.1 -0.4 90 26 14 24.1 100.33     LegendNANA
01:00 Legend Double Dagger 0.6 -0.9 90 26 13 24.1 100.34     LegendNANA
02:00 Legend Double Dagger -0.2 -1.3 92 25 14 24.1 100.38   -4 Clear
03:00 Legend Double Dagger -0.6 -1.7 92 25 14 24.1 100.40   -5 LegendNANA
04:00 Legend Double Dagger -1.1 -1.8 95 23 18 24.1 100.45   -6 LegendNANA
05:00 Legend Double Dagger -1.4 -2.0 96 24 15 24.1 100.47   -6 Clear
06:00 Legend Double Dagger -2.0 -2.6 96 24 13 24.1 100.55   -6 LegendNANA
07:00 Legend Double Dagger -1.9 -2.5 96 22 13 24.1 100.53   -6 LegendNANA
08:00 Legend Double Dagger -0.2 -1.2 93 22 11 24.1 100.58   -4 Clear
09:00 Legend Double Dagger 1.9 -0.7 83 23 12 24.1 100.59     LegendNANA
10:00 Legend Double Dagger 3.9 -0.5 73 25 8 24.1 100.58     LegendNANA
11:00 Legend Double Dagger 5.1 -1.6 62 22 11 24.1 100.57     Mostly Cloudy
12:00 Legend Double Dagger 6.5 -2.1 54 25 10 24.1 100.48     LegendNANA
13:00 Legend Double Dagger 7.8 -0.9 54 7 6 24.1 100.40     LegendNANA
14:00 Legend Double Dagger 8.2 0.0 56 28 4 24.1 100.35     Mostly Cloudy
15:00 Legend Double Dagger 8.6 0.1 55 16 9 24.1 100.32     LegendNANA
16:00 Legend Double Dagger 8.4 1.6 62 14 16 24.1 100.26     Rain
17:00 Legend Double Dagger 6.4 2.9 78 18 3 24.1 100.24     Rain
18:00 Legend Double Dagger 5.5 4.3 92 8 14 16.1 100.20     Rain
19:00 Legend Double Dagger 4.9 3.4 90 11 14 24.1 100.15     LegendNANA
20:00 Legend Double Dagger 4.6 3.3 91 28 23 12.9 100.21     Rain Showers
21:00 Legend Double Dagger 4.1 3.4 95 31 5 24.1 100.18     LegendNANA
22:00 Legend Double Dagger 4.3 3.1 92 32 10 12.9 100.22     Rain Showers
23:00 Legend Double Dagger 2.2 1.3 94 32 25 12.9 100.27     Drizzle

Notes on Data Quality.

Legend

  • E = Estimated
  • M = Missing
  • NA = Not Available
  • ‡ = Partner data that is not subject to review by the National Climate Archives
Date modified: